Hourly Data Report for January 22, 2005

TORONTO CITY
ONTARIO

43°40'00.000" N
79°24'00.000" W
112.50 m
6158355
71508
XTO

Download Data

Hourly Data (January 2005)
Hourly Data Report for January 22, 2005
TIME
LST
Temp Definition
°C
Dew Point Definition
°C
Rel Hum Definition
%
Precip. Amount Definition
mm

Wind Dir Definition
10's deg

Wind Spd Definition
km/h
Visibility Definition
km
Stn Press Definition
kPa
Hmdx Definition


Wind Chill Definition


Weather Definition


00:00 -17.9 -21.8 71   LegendMM LegendMM   101.10     LegendNANA
01:00 -17.4 -19.9 81   LegendMM LegendMM   101.00     LegendNANA
02:00 -16.1 -18.1 85   LegendMM LegendMM   100.90     LegendNANA
03:00 -15.8 -17.7 85   LegendMM LegendMM   100.78     LegendNANA
04:00 -15.6 -17.4 86   LegendMM LegendMM   100.65     LegendNANA
05:00 -14.3 -16.1 86   LegendMM LegendMM   100.51     LegendNANA
06:00 -15.3 -17.0 87   LegendMM LegendMM   100.38     LegendNANA
07:00 -15.2 -16.8 88   LegendMM LegendMM   100.17     LegendNANA
08:00 -14.8 -16.3 88   LegendMM LegendMM   100.05     LegendNANA
09:00 -15.0 -16.6 88   LegendMM LegendMM   99.92     LegendNANA
10:00 -15.0 -16.7 87   LegendMM LegendMM   99.83     LegendNANA
11:00 -15.5 -17.2 87   LegendMM LegendMM   99.74     LegendNANA
12:00 -16.6 -18.6 84   LegendMM LegendMM   99.55     LegendNANA
13:00 -16.9 -18.7 86   LegendMM LegendMM   99.53     LegendNANA
14:00 -16.6 -18.4 86   LegendMM LegendMM   99.47     LegendNANA
15:00 -16.0 -17.8 86   LegendMM LegendMM   99.50     LegendNANA
16:00 -15.6 -17.4 86   LegendMM LegendMM   99.56     LegendNANA
17:00 -15.4 -17.2 86   LegendMM LegendMM   99.64     LegendNANA
18:00 -15.5 -17.5 85   LegendMM LegendMM   99.76     LegendNANA
19:00 -16.1 -18.4 82   LegendMM LegendMM   99.88     LegendNANA
20:00 -16.8 -19.2 82   LegendMM LegendMM   100.00     LegendNANA
21:00 -16.9 -19.4 81   LegendMM LegendMM   100.12     LegendNANA
22:00 -16.9 -19.6 80   LegendMM LegendMM   100.19     LegendNANA
23:00 -16.5 -19.7 76   LegendMM LegendMM   100.29     LegendNANA

Notes on Data Quality.

Legend

  • E = Estimated
  • M = Missing
  • NA = Not Available*
  • [empty] = Indicates an unobserved value
Date modified: